GFSMW_500_spd_255.txt.gz
Wind_Speed
45 45 46 46 47 49 49 51 52 53 51 51 49 44 41 41 40 36 34 31 31 30 28 27 25 23 21 22 25 27 28 28 29 27 26 25 25 23 23 24 24 23 24
48 48 47 48 48 50 54 54 56 58 59 59 56 55 50 47 48 45 41 38 36 36 36 32 30 28 27 25 26 26 27 28 30 28 29 27 28 27 28 29 29 28 28
49 51 53 52 51 50 52 57 59 62 63 63 63 62 60 54 51 51 49 46 43 43 40 38 35 33 33 31 31 32 31 30 31 31 31 31 29 34 32 32 33 33 32
44 48 52 56 59 58 56 57 61 66 67 69 69 68 66 65 58 55 58 54 51 49 49 47 44 42 40 39 37 37 38 38 35 36 34 35 36 36 36 36 36 36 35
44 46 49 51 55 60 64 65 63 64 72 74 74 75 73 72 69 64 62 64 59 56 55 54 53 50 48 46 45 44 43 44 43 42 41 39 40 40 40 39 40 41 40
39 42 46 50 55 59 64 68 71 71 70 75 80 79 80 78 78 76 72 69 69 64 61 60 59 57 56 54 53 52 52 49 48 47 47 46 46 47 48 47 44 47 46
30 33 36 40 42 47 54 62 71 75 76 77 78 84 85 84 83 83 81 76 75 75 71 66 63 62 61 61 60 59 59 58 55 53 52 52 52 50 53 53 49 50 50
25 28 30 34 38 40 42 47 56 65 75 78 81 84 88 89 88 88 88 86 81 81 79 76 72 67 65 64 63 62 63 63 63 61 59 58 58 57 57 58 57 55 54
24 25 28 31 35 37 38 40 43 47 51 57 62 81 87 92 92 91 92 91 91 85 85 83 81 77 73 70 69 68 68 65 63 64 66 66 65 64 63 63 63 62 60
22 24 27 32 36 38 40 39 42 47 43 47 50 46 61 85 94 93 93 96 94 93 98 92 86 85 82 79 76 74 74 73 71 68 66 68 69 69 69 69 69 68 68
23 24 27 30 33 36 38 40 39 39 52 50 46 43 40 42 68 90 93 94 97 97 98 95 92 94 87 87 78 81 80 78 75 73 72 68 70 71 73 73 73 73 72
23 25 27 28 31 34 36 38 39 39 40 50 54 50 51 48 43 63 84 92 94 97 97 104 102 93 90 91 73 82 89 84 80 79 77 75 70 71 75 78 79 77 78
23 26 28 28 30 32 35 36 37 38 39 38 53 60 55 57 55 56 63 65 84 90 92 95 97 96 96 94 89 87 76 83 93 85 81 75 76 74 73 79 82 83 83
24 26 28 29 30 32 35 35 36 38 39 39 38 46 55 56 58 50 46 58 64 69 78 93 88 94 100 100 98 99 88 83 69 73 81 79 79 81 80 80 83 86 87
26 28 29 29 30 32 34 36 37 38 39 40 42 42 39 42 55 57 57 58 61 63 64 77 83 81 80 97 95 84 92 100 88 52 72 81 87 88 90 82 87 85 90
29 30 32 32 31 33 35 36 37 39 40 41 42 42 40 44 45 54 60 58 58 64 65 71 76 76 82 88 82 105 98 70 71 88 80 81 91 66 79 68 85 80 83
29 31 33 33 33 34 35 37 38 40 42 44 44 44 45 46 45 46 48 48 53 56 60 64 65 70 82 95 90 73 90 98 93 92 95 90 93 97 105 94 97 70 72
29 31 33 33 35 35 36 38 39 41 44 46 47 47 47 47 50 51 53 51 49 54 66 65 62 71 78 71 70 82 92 87 90 87 91 89 94 90 104 94 89 97 98
29 31 32 34 35 35 37 39 39 42 44 46 47 48 50 52 53 52 52 56 57 55 55 58 68 78 77 77 78 73 91 86 79 90 88 90 89 90 94 94 93 92 88
30 31 33 35 36 36 38 40 41 43 45 47 49 51 52 52 54 55 55 54 54 53 50 47 54 59 64 69 72 83 83 74 74 80 90 96 89 88 92 91 88 88 89
31 32 34 36 35 37 39 41 42 44 46 49 52 53 55 56 58 57 57 55 53 53 50 45 43 41 43 44 59 68 79 86 89 82 71 70 72 73 91 99 92 95 93
31 33 35 36 36 38 40 42 43 46 47 50 53 55 57 60 58 56 53 50 48 45 44 45 43 42 43 42 42 46 52 60 84 99 88 79 78 66 71 69 82 96 94
32 34 36 36 38 39 41 42 44 46 48 51 53 56 59 59 56 51 48 45 42 39 39 38 38 38 41 42 43 46 51 53 53 69 83 87 84 82 79 71 72 68 71
33 35 36 37 39 40 42 43 44 47 49 51 54 57 59 55 51 47 44 41 38 36 36 35 33 38 41 44 45 44 44 47 48 50 58 64 70 71 66 75 77 73 72
35 36 37 38 39 41 42 43 44 47 50 52 54 57 58 53 47 44 42 38 37 34 30 30 33 36 40 40 40 40 41 43 44 47 44 51 53 57 61 64 68 71 75
36 37 38 39 40 41 43 44 45 48 50 53 54 56 56 49 45 40 37 37 33 31 30 30 32 35 36 37 38 40 43 43 44 45 45 45 47 47 60 69 69 70 70

GFSMW_500_spd_258.txt.gz
Wind_Speed
39 39 38 39 41 42 44 45 45 47 49 48 49 49 47 45 43 41 39 38 35 35 35 36 35 33 30 30 29 29 30 29 32 33 30 31 30 29 29 30 30 29 28
40 40 39 39 39 40 44 47 49 49 51 53 55 54 54 52 50 49 48 45 44 41 41 42 41 40 38 35 33 32 32 32 33 33 36 34 33 30 32 34 32 30 31
40 41 41 41 40 41 42 44 47 52 55 55 58 60 60 61 60 59 55 53 51 51 49 47 47 45 45 43 40 38 38 36 37 35 36 35 32 36 32 33 34 32 33
37 39 40 41 41 42 44 45 47 50 53 56 60 62 66 67 67 66 65 62 59 57 57 55 53 52 51 48 47 46 45 45 42 43 38 36 37 37 35 37 35 35 36
33 35 36 39 41 43 45 47 49 52 54 56 60 64 70 72 74 73 72 71 69 66 63 64 62 59 57 55 53 51 52 52 51 49 46 44 41 41 39 38 39 40 39
31 33 35 37 38 39 42 43 47 50 53 58 62 64 70 75 79 79 79 78 78 74 73 69 68 67 65 62 60 58 58 58 56 55 53 52 48 47 46 45 44 47 45
32 34 35 35 35 35 36 36 38 41 45 50 55 62 69 75 81 85 85 85 84 83 81 77 76 72 72 70 67 65 64 63 62 60 59 58 56 55 53 54 52 52 51
30 30 29 29 28 28 28 31 33 34 39 42 45 53 58 64 78 85 89 90 89 90 90 86 82 81 77 75 75 72 70 69 67 65 64 63 62 60 60 60 59 57 57
27 27 27 27 28 29 29 29 30 34 36 37 41 44 48 52 58 66 86 93 91 91 92 95 90 88 83 82 80 80 78 75 74 72 68 67 66 65 64 62 64 65 63
29 29 28 28 29 31 30 30 30 32 34 37 40 41 42 45 51 54 56 60 82 93 92 94 97 100 92 89 86 85 85 83 79 77 76 74 73 71 71 70 68 68 71
30 29 28 28 29 31 31 31 31 31 32 35 39 40 44 46 44 51 54 50 52 60 81 95 95 99 100 98 88 100 90 90 90 86 91 84 81 82 79 80 79 79 76
29 29 29 29 29 30 32 33 33 34 34 35 37 40 44 45 45 45 53 58 53 52 52 69 81 96 100 100 97 102 67 83 68 95 92 88 90 92 86 85 84 82 77
30 30 31 31 31 31 32 34 35 35 35 37 37 38 41 43 44 44 45 47 51 59 56 58 60 68 88 101 108 105 108 101 98 98 80 79 90 70 80 92 98 85 82
30 30 30 31 32 33 33 34 36 37 37 38 39 41 42 43 45 45 43 41 44 45 52 56 67 73 58 77 88 103 98 98 105 101 105 104 96 71 84 101 69 80 88
30 30 30 31 32 33 34 35 36 37 38 39 39 41 42 43 45 46 46 47 49 46 48 50 58 59 57 74 68 84 98 108 109 107 112 109 111 107 100 98 93 73 76
31 32 32 32 33 34 35 36 37 37 38 39 39 40 43 45 45 47 48 49 50 53 53 50 50 56 58 61 65 62 78 81 91 110 105 107 102 105 106 98 101 96 73
32 34 34 34 34 35 35 37 38 38 39 39 39 40 42 43 44 47 51 53 53 54 56 56 55 54 58 60 63 64 67 81 77 75 91 109 105 101 101 108 96 93 105
32 35 35 36 35 35 36 38 38 38 40 41 42 43 43 45 48 50 54 58 57 58 60 60 59 54 53 56 59 63 59 66 79 80 78 79 80 89 88 86 94 97 89
33 34 36 36 35 35 36 38 38 40 42 43 44 46 47 49 51 55 59 64 63 60 58 58 58 56 49 51 54 54 57 67 69 73 77 80 87 98 100 99 77 83 81
33 34 35 36 35 35 37 39 39 41 43 44 45 47 49 51 54 59 64 68 67 63 60 56 51 47 42 43 44 47 49 52 59 66 72 84 79 71 87 92 106 95 93
32 33 34 35 35 35 38 39 40 41 43 46 48 49 51 53 56 60 64 69 68 64 55 48 43 39 36 36 39 42 43 48 48 50 53 62 68 77 75 71 80 96 89
32 32 33 35 36 37 38 39 40 42 44 47 49 50 52 54 57 61 64 68 66 59 49 39 37 37 36 35 35 36 38 42 43 44 45 49 54 63 71 76 76 73 75
34 34 35 36 38 39 39 39 41 43 45 48 50 51 54 56 58 60 64 66 64 54 44 39 36 35 34 33 32 33 38 41 43 47 46 45 47 50 58 67 75 80 81
34 35 36 37 38 39 40 41 43 45 47 49 50 52 54 56 58 61 64 64 61 52 42 38 35 31 31 32 33 36 39 42 44 46 42 39 38 45 49 51 55 60 65
36 36 37 38 38 39 40 42 44 46 48 49 50 52 54 56 57 60 63 63 56 52 44 36 32 28 27 29 31 33 35 37 38 39 42 42 41 37 43 48 55 59 59
36 38 38 39 39 40 41 43 44 46 48 49 50 52 54 55 57 59 60 58 50 48 42 38 33 32 31 30 31 34 35 36 38 39 40 41 42 41 43 46 48 52 57

GFSMW_500_spd_261.txt.gz
Wind_Speed
30 32 32 33 35 37 38 38 39 40 41 42 43 45 47 47 46 47 45 44 42 42 40 38 38 39 38 38 38 37 36 37 37 39 36 37 36 35 31 33 34 34 34
27 29 30 30 31 33 35 37 38 40 42 44 45 48 50 52 54 53 53 52 51 50 47 46 45 46 44 41 42 43 42 39 41 44 43 40 41 36 35 38 37 37 38
28 28 29 30 31 32 34 36 38 39 40 42 45 48 52 55 57 58 59 59 58 58 57 55 52 51 53 51 48 47 47 46 45 47 47 44 40 41 41 40 40 39 40
30 30 29 30 30 31 31 33 36 38 41 43 44 47 50 52 58 63 64 65 66 65 65 64 62 60 58 58 57 56 53 52 49 51 52 50 45 44 42 44 43 42 41
27 28 28 28 29 28 28 30 33 35 39 41 43 46 50 53 57 60 66 71 72 72 72 72 70 70 68 65 63 62 62 60 58 55 55 56 54 51 49 42 44 46 43
24 24 23 26 29 30 32 34 35 36 38 40 40 42 44 49 55 61 67 70 74 78 78 78 77 62 74 72 70 68 66 67 66 63 61 60 58 56 56 54 47 48 46
22 25 26 26 28 31 32 33 34 34 34 34 33 34 37 38 42 47 54 65 79 82 83 84 82 85 82 83 79 76 74 72 73 72 68 67 66 62 61 60 56 55 52
25 25 25 26 27 29 29 31 34 35 35 32 30 29 31 35 39 40 42 44 49 58 72 89 88 89 89 92 83 81 83 85 83 76 77 73 71 69 67 66 66 63 60
24 25 25 26 27 28 30 31 32 33 33 32 31 30 31 32 33 35 39 42 43 46 45 57 70 90 93 93 94 90 86 95 56 84 81 71 80 74 74 72 71 71 69
24 24 25 26 28 29 30 31 33 33 32 32 31 32 32 32 33 34 36 39 43 45 48 47 49 57 69 90 95 98 102 98 89 76 76 86 81 83 83 77 77 76 76
25 25 25 26 27 28 30 31 32 33 34 34 33 33 35 34 34 35 38 40 43 45 48 49 50 53 58 59 70 91 99 106 83 95 97 83 84 70 77 90 87 81 83
26 27 25 26 27 28 29 30 32 34 33 33 33 33 34 34 35 37 38 39 41 44 48 49 50 49 54 60 60 61 69 96 106 106 84 100 109 74 85 60 83 91 73
28 28 26 27 28 28 30 31 32 33 34 34 35 35 35 35 35 36 36 37 40 42 45 49 52 53 52 52 59 64 67 66 84 109 114 85 88 106 89 77 71 70 96
29 28 28 28 29 30 31 32 33 34 35 35 36 36 36 37 37 37 37 39 42 45 46 48 50 53 57 59 59 59 60 66 66 79 102 109 107 113 107 106 106 88 77
31 29 30 31 31 33 33 34 35 35 37 37 37 37 38 39 39 40 42 46 51 54 54 55 57 61 62 60 61 61 59 59 63 65 79 94 104 108 114 115 114 114 98
31 32 32 33 33 33 34 35 36 36 38 38 38 38 39 40 41 44 46 49 53 55 58 59 59 65 68 65 63 64 62 60 59 61 63 68 82 93 96 100 104 97 112
32 31 32 33 34 34 34 36 37 37 38 39 39 39 40 40 42 44 47 50 52 55 60 62 62 68 71 68 64 63 61 59 59 58 66 69 68 75 79 77 99 106 100
30 30 31 33 34 34 35 36 37 38 39 40 40 40 41 42 44 46 49 52 55 58 61 64 67 72 71 64 60 56 55 55 55 57 59 65 73 70 76 77 75 82 81
27 29 30 31 33 34 35 36 37 38 40 41 41 42 43 45 46 49 51 53 57 59 62 65 68 71 66 56 48 46 44 44 47 51 52 56 59 71 74 72 73 80 78
25 27 29 30 32 34 35 36 37 39 41 41 42 44 45 47 49 51 53 56 59 61 63 64 67 68 61 48 43 41 39 38 41 45 46 47 46 49 58 69 72 75 77
26 28 31 32 32 34 35 36 38 40 42 43 44 45 47 50 51 53 55 57 59 61 62 64 66 65 56 44 42 41 37 35 34 37 41 43 45 46 46 51 60 67 70
29 29 32 33 33 34 35 36 38 41 42 43 45 47 49 51 52 54 56 58 59 60 60 63 65 60 51 45 42 39 35 33 32 32 36 40 44 46 47 46 46 50 60
29 30 32 32 33 34 35 37 39 41 42 43 46 48 50 53 54 56 58 59 60 60 60 62 66 59 46 41 39 38 35 35 35 36 37 39 43 44 44 48 49 48 48
31 33 34 35 35 36 36 38 40 42 42 45 46 49 51 53 55 56 59 60 60 60 61 63 67 61 45 38 35 33 33 32 32 33 36 40 43 44 39 38 40 43 45
31 33 35 36 37 38 38 39 41 42 43 45 47 50 52 53 55 57 59 60 62 63 63 66 68 62 50 37 35 32 31 32 33 33 33 34 37 36 36 39 41 41 43
33 34 36 37 37 38 39 41 41 42 43 45 48 49 51 53 55 56 58 60 63 64 67 69 66 58 49 42 36 35 33 32 32 30 30 30 32 36 35 31 34 37 41

GFSMW_500_spd_264.txt.gz
Wind_Speed
29 29 29 30 32 32 31 32 33 33 32 33 37 40 41 43 44 45 45 45 46 45 47 45 44 44 43 40 41 43 42 41 41 44 42 43 45 45 43 42 42 43 40
30 30 30 31 31 32 32 32 33 34 35 36 38 40 42 45 48 50 51 52 52 49 51 51 52 52 51 51 49 48 47 47 48 48 49 46 44 44 46 47 46 46 45
29 28 27 27 27 28 29 30 31 33 34 36 38 39 40 43 46 50 54 56 58 60 58 58 58 59 59 58 57 57 58 55 51 53 56 54 49 48 48 47 48 48 49
24 25 24 24 25 26 27 28 29 31 32 33 35 37 39 41 44 48 52 55 59 61 64 67 66 66 65 65 66 63 64 64 64 60 58 61 58 54 52 53 51 48 47
23 23 23 24 23 23 23 24 25 27 29 31 33 35 37 40 42 45 48 52 55 59 63 67 69 72 73 72 72 74 73 72 73 74 67 64 64 64 61 55 54 56 53
23 23 22 22 21 22 23 25 25 27 29 30 33 35 38 39 40 42 43 45 48 53 58 65 70 73 75 77 78 79 81 82 73 87 65 69 70 69 69 67 61 59 58
21 20 21 22 22 22 22 23 24 26 29 31 34 36 36 37 37 36 37 37 39 41 42 46 52 58 69 79 84 83 85 85 86 82 74 73 62 70 73 78 74 70 63
22 20 20 21 21 21 22 24 25 27 30 31 33 35 36 38 38 38 36 35 34 33 35 38 40 43 47 52 62 74 86 92 94 91 95 73 82 83 84 85 80 89 75
21 20 19 20 20 21 23 26 27 29 30 31 33 34 35 36 37 38 36 33 31 30 30 33 34 39 42 44 47 54 63 74 88 92 95 100 98 83 88 81 68 71 88
20 19 19 20 21 23 25 26 26 27 29 31 33 35 37 37 38 38 36 35 32 32 33 35 36 37 39 42 46 49 52 56 61 73 89 100 104 103 103 81 92 92 73
19 19 20 21 23 25 25 26 26 27 28 30 32 34 35 37 38 38 38 37 36 35 37 38 39 40 42 45 47 49 51 56 58 60 61 72 88 108 107 108 105 90 93
22 23 21 22 25 26 26 26 27 28 29 30 31 33 36 37 38 38 38 38 39 39 41 42 42 42 45 49 53 56 58 58 59 63 65 67 71 76 86 98 110 111 107
25 24 24 25 27 28 28 28 29 29 29 31 32 34 35 36 37 38 38 39 39 41 42 43 44 46 49 53 56 59 62 65 67 67 67 69 71 75 77 84 91 105 110
27 28 27 30 30 30 30 30 31 31 31 32 33 35 36 36 37 38 39 40 40 41 42 45 48 52 54 57 59 62 65 68 70 69 67 68 73 73 75 82 83 86 99
28 28 30 33 32 32 32 32 33 33 33 34 35 35 37 38 38 39 40 41 43 44 47 49 52 56 58 60 64 65 67 72 70 68 65 67 69 73 75 76 79 82 81
28 29 32 33 32 32 33 33 34 34 34 35 36 37 38 39 40 40 41 43 44 46 49 52 55 58 59 62 65 67 72 72 70 67 62 62 65 67 71 73 73 76 76
26 30 32 32 31 32 32 32 34 34 35 36 37 37 38 40 41 41 43 45 47 48 51 54 57 59 62 66 66 69 73 73 69 63 59 56 56 60 65 66 67 68 77
27 29 27 27 28 30 31 32 33 34 35 36 37 38 39 40 41 43 44 47 49 52 54 57 59 60 64 66 67 70 71 70 60 56 53 52 50 50 55 56 56 59 61
23 21 22 23 26 29 31 32 33 33 34 35 37 39 40 41 42 43 46 48 50 53 56 58 60 63 66 66 67 70 71 66 52 50 51 49 47 45 44 49 48 46 46
19 19 20 23 25 28 29 31 32 33 35 36 38 39 40 42 44 45 47 50 53 55 57 59 62 65 66 67 68 70 70 64 49 45 44 43 44 43 44 43 44 44 42
20 20 23 25 27 29 30 31 33 34 36 36 38 39 40 43 45 46 48 51 54 57 58 60 62 65 66 66 68 71 69 62 47 42 39 39 39 39 40 43 45 45 42
23 23 25 25 28 29 30 31 33 34 34 37 38 40 43 44 46 48 50 53 56 57 57 59 62 65 65 66 69 72 68 56 47 42 40 39 40 41 41 42 44 44 44
24 26 28 28 28 29 30 32 32 33 35 37 40 43 44 45 47 49 52 54 56 58 58 60 62 64 64 65 69 72 62 49 42 40 40 38 39 41 41 43 44 45 43
26 26 28 28 29 30 32 32 32 34 36 38 40 42 44 46 49 51 54 56 57 58 59 62 64 64 63 65 69 71 61 42 38 36 35 36 36 35 36 37 39 39 39
27 27 29 30 30 30 32 33 34 35 37 39 40 42 44 47 50 53 55 57 59 61 62 64 65 63 64 67 71 73 58 44 40 35 34 34 33 33 33 34 35 36 36
29 29 30 30 31 31 32 33 35 37 39 41 42 43 44 47 49 52 56 58 59 60 62 64 64 65 67 70 71 63 49 44 43 35 32 31 32 32 32 33 33 33 36